Tracking 25370 objects as of 25-Jan-2022
HD Live streaming from Space Station
objects crossing your sky now

OPS 5113 (NAVSTAR 3)

Track OPS 5113 (NAVSTAR 3) now!
OPS 5113 (NAVSTAR 3) is classified as:


NORAD ID: 11054
Int'l Code: 1978-093A
Perigee: 20,575.3 km
Apogee: 21,087.7 km
Inclination: 63.9 °
Period: 744.2 minutes
Semi major axis: 27202 km
RCS: 0.5283 m2 (medium)
Launch date: October 7, 1978
Source: United States (US)
Launch site: AIR FORCE WESTERN TEST RANGE (AFWTR)
aabbcc
Your satellite tracking list
Your tracking list is empty




NASA's NSSDC Master Catalog

Two Line Element Set (TLE):
1 11054U 78093A   22024.45338719 -.00000047  00000-0  00000-0 0  9990
2 11054  63.9348 347.4234 0094175 231.1947 301.5390  1.93504051309625
Source of the keplerian elements: AFSPC